Flag for Spain Weather past 2 weeks in Santa Cruz de Tenerife, Canary Islands, Spain

Now
77 °F

Passing clouds.


Feels Like: 79 °F
Forecast: 74 / 81 °F
Wind: 5 mph from Northeast

Location: Tenerife / Los Rodeos

Current Time: Sep 1, 2015 at 1:36:22 PM

Latest Report: Sep 1, 2015 at 1:00 PM


Visibility: N/A

Pressure: 30.21 "Hg

Humidity: 61%

Dew point: 63 °F

Location of Santa Cruz de TenerifeLocation

Historic Weather in Santa Cruz de Tenerife — Graph

°F

Santa Cruz de Tenerife temperature yesterday

Maximum temperature yesterday: 77 °F (at 3:30 PM)
Minimum temperature yesterday: 68 °F (at 6:00 AM)
Average temperature yesterday: 71 °F

Past Weeks' High & Low Weather Summary

 TemperatureHumidityPressure
High77 °F (Aug 30, 2:00 PM)100% (Aug 17, 6:30 PM)30.24 "Hg (Aug 17, 6:30 PM)
Low63 °F (Aug 18, 6:00 AM)53% (Aug 19, 6:30 PM)30.01 "Hg (Aug 29, 6:00 PM)
Average68 °F83%30.14 "Hg
* Reported Aug 17 12:00 Noon — Sep 1 12:30 PM, Santa Cruz de Tenerife, Weather by CustomWeather, © 2015

Note: Actual official high and low records may vary slightly from our data, if they occured in-between our weather recording intervals... More about our weather records

Advertising

Santa Cruz de Tenerife weather history for previous 24 hours

 ConditionsComfort  
Time TempWeatherWind HumidityBarometerVisibility
12:30 PM
Tue, Sep 1
75 °FPassing clouds.6 mph69%30.21 "HgN/A
12:00 PM73 °FScattered clouds.2 mph74%30.24 "HgN/A
11:30 AM73 °FScattered clouds.2 mph69%30.21 "HgN/A
11:00 AM72 °FPartly sunny.2 mph73%30.21 "HgN/A
10:30 AM70 °FPartly sunny.2 mph88%30.21 "HgN/A
10:00 AM70 °FPartly sunny.5 mph78%30.21 "HgN/A
9:30 AM70 °FPartly sunny.2 mph83%30.21 "HgN/A
9:00 AM68 °FBroken clouds.8 mph88%30.21 "HgN/A
8:30 AM68 °FPartly cloudy.8 mph83%30.18 "HgN/A
8:00 AM68 °FPartly cloudy.8 mph94%30.18 "HgN/A
7:30 AM66 °FPartly cloudy.10 mph94%30.18 "HgN/A
7:00 AM66 °FPassing clouds.9 mph94%30.15 "HgN/A
6:30 AM68 °FPassing clouds.8 mph88%30.15 "HgN/A
6:00 AM68 °FPartly cloudy.10 mph88%30.15 "HgN/A
11:00 PM
Mon, Aug 31
68 °FPassing clouds.13 mph94%30.18 "HgN/A
10:30 PM68 °FPassing clouds.13 mph94%30.18 "HgN/A
10:00 PM68 °FPassing clouds.12 mph94%30.18 "HgN/A
9:30 PM68 °FPassing clouds.9 mph94%30.18 "HgN/A
9:00 PM68 °FPartly sunny.8 mph94%30.15 "HgN/A
8:30 PM70 °FScattered clouds.7 mph88%30.15 "HgN/A
8:00 PM70 °FPartly sunny.10 mph88%30.15 "HgN/A
7:30 PM70 °FPartly sunny.10 mph88%30.15 "HgN/A
7:00 PM72 °FPartly sunny.17 mph88%30.15 "HgN/A
6:30 PM72 °FPartly sunny.17 mph83%30.15 "HgN/A
6:00 PM73 °FPassing clouds.12 mph78%30.15 "HgN/A
5:30 PM73 °FPassing clouds.10 mph78%30.15 "HgN/A
5:00 PM75 °FPassing clouds.13 mph74%30.15 "HgN/A
4:30 PM75 °FPassing clouds.15 mph78%30.15 "HgN/A
4:00 PM77 °FScattered clouds.14 mph69%30.15 "HgN/A
3:30 PM77 °FScattered clouds.13 mph74%30.15 "HgN/A
3:00 PM75 °FScattered clouds.5 mph74%30.18 "HgN/A
2:30 PM73 °FScattered clouds.9 mph78%30.18 "HgN/A
2:00 PM75 °FPartly sunny.12 mph74%30.18 "HgN/A
1:30 PM75 °FPartly sunny.9 mph74%30.18 "HgN/A
1:00 PM75 °FScattered clouds.7 mph74%30.18 "HgN/A
Weather by CustomWeather, © 2015

See weather overviewHow to use our weather pages